STARLINK-35988

Last updated on Wed Dec 31 2025 00:02:06 GMT+0000 (Coordinated Universal Time)

1 66615U 25270AD 25364.60786333 .00056757 00000+0 13569-2 0 9991 2 66615 43.0023 89.5229 0002096 291.4635 68.5998 15.40676953 6940
UTC large
Height (km)
Speed (km/s)
/
Latitude / Longitude
Inclination (degrees)
Orbital Period (minutes)
Azimuth
Elevation
Range (km)
Doppler Factor

Next 0 passes for location: London (51.5072 / 0.1276)

Sorry there are no passes over London.